Flag for Japan Weather past 2 weeks in Nagoya, Japan

Now
68 °F

Light rain. Fog.


Feels Like: 68 °F
Forecast: 66 / 76 °F
Wind: No wind

Location: Nagoya Airport

Current Time: Jul 5, 2015 at 3:04:46 AM

Latest Report: Jul 5, 2015 at 2:30 AM


Visibility: 3 mi

Pressure: 29.83 "Hg

Humidity: 94%

Dew point: 66 °F

Location of NagoyaLocation

Historic Weather in Nagoya — Graph

°F

Nagoya temperature yesterday

Maximum temperature yesterday: 75 °F (at 9:30 AM)
Minimum temperature yesterday: 70 °F (at 10:00 PM)
Average temperature yesterday: 73 °F

Past Weeks' High & Low Weather Summary

 TemperatureHumidityPressure
High81 °F (Jun 25, 10:30 AM)100% (Jul 1, 12:30 PM)29.92 "Hg (Jul 1, 12:30 PM)
Low66 °F (Jun 22, 3:30 AM)57% (Jun 28, 10:30 AM)29.27 "Hg (Jul 1, 10:00 AM)
Average72 °F81%29.70 "Hg
* Reported Jun 20 2:00 AM — Jul 5 2:00 AM, Nagoya, Weather by CustomWeather, © 2015

Note: Actual official high and low records may vary slightly from our data, if they occured in-between our weather recording intervals... More about our weather records

Advertising

Nagoya weather history for previous 24 hours

 ConditionsComfort  
Time TempWeatherWind HumidityBarometerVisibility
2:00 AM
Sun, Jul 5
68 °FLight rain. Fog.1 mph94%29.83 "Hg3 mi
1:30 AM68 °FLight rain. Passing clouds.2 mph94%29.86 "Hg4 mi
1:00 AM70 °FLight rain. Passing clouds.3 mph88%29.83 "Hg4 mi
12:30 AM70 °FLight rain. Partly cloudy.6 mph88%29.83 "Hg4 mi
12:00 AM70 °FLight rain. Partly cloudy.5 mph88%29.83 "Hg4 mi
11:30 PM
Sat, Jul 4
70 °FLight rain. Partly cloudy.7 mph88%29.83 "Hg4 mi
11:00 PM70 °FLight rain. Partly cloudy.7 mph94%29.86 "Hg4 mi
10:30 PM70 °FLight rain. Partly cloudy.7 mph94%29.86 "Hg4 mi
10:00 PM70 °FLight rain. Passing clouds.5 mph94%29.86 "Hg5 mi
9:30 PM72 °FLight rain. Passing clouds.3 mph88%29.86 "Hg5 mi
9:00 PM72 °FLight rain. Passing clouds.2 mph88%29.83 "Hg5 mi
8:30 PM72 °FLight rain. Passing clouds.3 mph88%29.83 "Hg6 mi
8:00 PM72 °FLight rain. Partly cloudy.1 mph88%29.86 "Hg6 mi
7:30 PM72 °FLight rain. Partly cloudy.1 mph88%29.83 "HgN/A
7:00 PM72 °FLight rain. Partly sunny.3 mph88%29.83 "Hg6 mi
6:30 PM72 °FLight rain. Partly sunny.2 mph88%29.83 "Hg5 mi
6:00 PM72 °FLight rain. Partly sunny.3 mph88%29.83 "Hg5 mi
5:30 PM72 °FLight rain. Partly sunny.6 mph88%29.83 "Hg5 mi
5:00 PM72 °FLight rain. Partly sunny.6 mph88%29.83 "Hg4 mi
4:30 PM72 °FSprinkles. Partly sunny.5 mph88%29.83 "Hg5 mi
4:00 PM73 °FSprinkles. Partly sunny.5 mph83%29.80 "Hg5 mi
3:30 PM72 °FSprinkles. Broken clouds.6 mph88%29.80 "Hg4 mi
3:00 PM72 °FSprinkles. Partly sunny.5 mph88%29.80 "Hg4 mi
2:30 PM73 °FSprinkles. Broken clouds.5 mph83%29.83 "Hg4 mi
2:00 PM73 °FSprinkles. Partly sunny.7 mph89%29.80 "Hg4 mi
1:30 PM73 °FLight rain. Broken clouds.9 mph89%29.80 "Hg6 mi
1:00 PM73 °FLight rain. Broken clouds.7 mph89%29.80 "Hg6 mi
12:30 PM73 °FLight rain. Broken clouds.6 mph89%29.80 "HgN/A
12:00 PM73 °FLight rain. Broken clouds.8 mph94%29.80 "HgN/A
11:30 AM73 °FLight rain. Broken clouds.8 mph89%29.80 "HgN/A
11:00 AM73 °FLight rain. Partly sunny.8 mph89%29.80 "HgN/A
10:30 AM75 °FScattered showers. Partly sunny.5 mph83%29.80 "HgN/A
10:00 AM75 °FSprinkles. Partly sunny.3 mph78%29.77 "HgN/A
9:30 AM75 °FPartly sunny.3 mph74%29.77 "HgN/A
9:00 AM73 °FPartly sunny.2 mph89%29.77 "HgN/A
8:30 AM73 °FPartly sunny.2 mph83%29.77 "HgN/A
8:00 AM73 °FPartly sunny.3 mph89%29.77 "HgN/A
7:30 AM73 °FScattered showers. Broken clouds.7 mph89%29.77 "HgN/A
7:00 AM73 °FPartly sunny.6 mph89%29.77 "HgN/A
6:30 AM73 °FBroken clouds.3 mph89%29.77 "HgN/A
6:00 AM72 °FPartly sunny.6 mph94%29.74 "HgN/A
5:30 AM72 °FLight rain. Low clouds.8 mph94%29.74 "HgN/A
5:00 AM73 °FLight rain. Low clouds.8 mph89%29.74 "HgN/A
4:30 AM72 °FLight rain. Partly cloudy.8 mph94%29.74 "HgN/A
4:00 AM73 °FScattered showers. Passing clouds.8 mph89%29.71 "HgN/A
3:30 AM73 °FLight rain. Passing clouds.6 mph89%29.71 "HgN/A
3:00 AM73 °FLight rain. Passing clouds.7 mph89%29.71 "HgN/A
Weather by CustomWeather, © 2015

See weather overviewHow to use our weather pages